This is the latest recevied weather packets stored in our database for station/object KN6ETB-1. If no packets are shown the sender has not sent any weather packets the latest 10 day(s).
| Time | Temp. | Humidity | Pressure | Rain* | Wind** | Luminosity | Snow |
|---|---|---|---|---|---|---|---|
| 1777411555 | 22.78° C | 46% | 1016.6 hPa | 0 mm | - | 373 W/m² | - |
| 1777411250 | 22.78° C | 46% | 1016.6 hPa | 0 mm | - | 597 W/m² | - |
| 1777410945 | 22.78° C | 47% | 1016.6 hPa | 0 mm | - | 288 W/m² | - |
| 1777410644 | 22.22° C | 48% | 1016.3 hPa | 0 mm | - | 557 W/m² | - |
| 1777410340 | 22.22° C | 47% | 1016.4 hPa | 0 mm | - | 540 W/m² | - |
| 1777410034 | 22.78° C | 47% | 1016.8 hPa | 0 mm | - | 626 W/m² | - |
| 1777409728 | 22.78° C | 46% | 1016.6 hPa | 0 mm | - | 605 W/m² | - |
| 1777409425 | 22.78° C | 47% | 1016.7 hPa | 0 mm | - | 649 W/m² | - |
| 1777409120 | 22.78° C | 45% | 1016.7 hPa | 0 mm | - | 655 W/m² | - |
| 1777408816 | 21.67° C | 47% | 1016.7 hPa | 0 mm | - | 635 W/m² | - |
| 1777408513 | 22.78° C | 47% | 1016.8 hPa | 0 mm | - | 627 W/m² | - |
| 1777408213 | 21.67° C | 48% | 1017 hPa | 0 mm | - | 638 W/m² | - |
| 1777407908 | 22.22° C | 47% | 1016.8 hPa | 0 mm | - | 656 W/m² | - |
| 1777407606 | 22.22° C | 46% | 1016.8 hPa | 0 mm | - | 622 W/m² | - |
| 1777407306 | 22.78° C | 46% | 1017.3 hPa | 0 mm | - | 596 W/m² | - |
| 1777407001 | 21.11° C | 48% | 1017.1 hPa | 0 mm | - | 655 W/m² | - |
| 1777406696 | 21.67° C | 47% | 1017.1 hPa | 0 mm | - | 452 W/m² | - |
| 1777406391 | 20.56° C | 51% | 1017.2 hPa | 0 mm | - | 767 W/m² | - |
| 1777406091 | 21.11° C | 51% | 1017.4 hPa | 0 mm | - | 357 W/m² | - |
| 1777405787 | 20.56° C | 50% | 1017.3 hPa | 0 mm | - | 761 W/m² | - |
| 1777405483 | 21.11° C | 52% | 1017.5 hPa | 0 mm | - | 741 W/m² | - |
| 1777405181 | 20.56° C | 51% | 1017.4 hPa | 0 mm | - | 786 W/m² | - |
| 1777404878 | 20.56° C | 51% | 1017.6 hPa | 0 mm | - | 745 W/m² | - |
| 1777404570 | 20.56° C | 50% | 1017.5 hPa | 0 mm | - | 751 W/m² | - |
| 1777404266 | 20.56° C | 52% | 1017.4 hPa | 0 mm | - | 747 W/m² | - |
* Rain latest hour (hover to see other rain measurements)
** Current wind speed in m/s (hover to see current wind gust speed)